Location: Asheville, NC
(35.6000°N, 82.5500°W)
Time: 09:28:33
(UTC-04:00)

Vanguard 1 Rocket - Pass Details

Date: 11 March 2018
Orbit: 653 x 4224 km, 34.3° (Epoch: 24 June)

Event Time Altitude Azimuth Distance (km) Brightness Sun altitude
Rises 03:13:08 0° 285° (WNW) 7,033 11.8 -51.6°
Enters shadow 03:14:23 - 283° (WNW) 6,861 11.7 -51.4°
Exits shadow 03:53:19 19° 173° (S) 6,466 11.4 -45.7°
Drops below altitude 10° 03:58:37 10° 164° (SSE) 7,032 11.7 -44.9°
Sets 04:04:24 0° 156° (SSE) 7,725 12.0 -43.9°
